[Date Prev][Date Next][Thread Prev][Thread Next] - [Date Index][Thread Index][Author Index]

2 Line ISS Keps 7-19



ISS
1 25544U 98067A   02200.14269735  .00019195  00000-0  24601-3 0  6753
2 25544  51.6356 252.5413 0008574  13.3312  96.0340 15.59153411209016


----
Via the sarex mailing list at AMSAT.ORG courtesy of AMSAT-NA.
To unsubscribe, send "unsubscribe sarex" to Majordomo@amsat.org



AMSAT Top AMSAT Home